Dewpoint
54 55 55 54 54 54 55 55 55 56 56 57 57 57 58 58 58 58 58 58 58 58 58 58 58 58 58 58 58 60 59 57 51 45 43 39 48 61 69 67 65 73 70 61 63 59 56 59 59 62 60 60 56 48 54 58 49 47 44 40 41 39 38 41 43 46 47 48 53 55 55 55 55 57 60 61 60 59 58 59 61 62 62 62 64 66 67 68
54 54 55 54 54 54 55 55 55 55 56 56 57 57 57 57 58 58 58 57 58 58 58 58 58 58 58 58 59 60 59 55 47 45 43 46 63 66 69 71 70 72 59 54 56 50 49 52 53 59 56 54 48 43 54 51 48 44 42 41 38 40 39 42 43 47 47 48 54 55 55 55 55 58 59 57 57 57 57 60 62 63 63 64 66 67 67 68
54 54 54 54 54 54 55 55 55 55 56 56 57 57 57 57 57 57 57 57 57 58 58 57 58 58 58 58 59 60 57 49 42 24 20 65 70 72 68 72 70 70 40 41 43 37 35 37 45 52 50 36 41 41 48 43 47 42 41 40 39 41 41 43 43 45 47 52 54 54 55 54 57 57 59 56 56 56 56 58 60 61 63 64 65 66 67 67
54 54 54 54 54 54 54 55 55 55 55 56 56 57 56 57 57 57 57 57 57 57 57 57 58 58 58 59 59 59 55 45 21 22 20 67 72 73 68 69 73 69 42 40 40 32 29 31 46 40 38 33 33 38 42 42 45 43 42 41 40 40 40 42 43 45 49 53 53 54 55 54 56 57 56 55 55 55 55 58 59 61 63 64 65 66 66 67
54 54 54 54 54 54 54 54 55 55 55 56 56 56 57 57 57 57 57 57 57 57 57 57 57 58 58 59 59 58 46 22 17 13 20 69 72 74 72 68 73 59 40 42 40 34 29 32 38 33 29 26 31 35 35 39 46 41 42 42 42 41 40 42 43 45 50 53 54 54 53 53 57 56 55 56 52 52 54 58 59 62 64 64 65 66 66 66
53 53 53 53 53 54 54 54 54 54 55 55 55 56 56 56 57 57 56 56 57 56 57 57 57 58 58 59 58 56 32 17 20 27 70 71 72 73 72 71 73 54 41 39 37 34 30 31 32 28 24 25 29 30 30 35 40 39 38 37 40 41 40 43 43 47 52 53 53 53 53 56 55 54 55 55 55 53 56 57 61 63 65 65 65 66 66 66
53 53 53 53 53 53 54 54 54 54 54 55 55 55 56 56 56 56 56 56 56 56 57 57 57 58 58 59 56 49 34 27 30 27 62 74 74 75 75 73 72 47 40 37 35 32 30 28 25 20 22 22 29 29 30 32 35 37 37 32 35 40 40 44 43 49 51 52 52 54 55 54 54 52 55 54 53 57 56 58 62 65 65 66 65 66 65 66
53 53 53 53 53 53 53 53 54 54 54 55 55 55 55 56 55 56 56 56 56 57 57 57 57 57 59 55 38 27 32 29 32 32 58 71 66 67 70 68 57 43 39 36 33 30 29 25 19 27 17 11 26 30 29 27 32 33 29 29 32 38 42 44 45 49 51 52 53 54 53 54 54 53 55 53 55 58 58 61 64 65 65 65 65 65 66 66
53 52 53 53 53 52 53 53 53 54 54 54 55 55 55 55 55 55 56 56 56 56 57 57 57 57 60 56 33 26 24 30 31 45 62 61 58 54 56 53 47 42 38 35 33 30 26 22 17 24 8 18 30 28 27 25 23 28 27 26 34 37 43 44 46 49 51 52 53 53 52 54 54 55 52 52 57 59 61 63 64 65 65 65 65 65 67 67
52 52 52 53 53 52 53 53 53 53 54 54 54 55 55 55 55 55 56 56 56 57 57 57 57 58 58 37 31 24 26 34 39 63 62 59 55 46 50 51 46 40 36 33 30 27 22 22 16 27 27 27 29 28 24 23 24 27 24 31 33 38 44 45 46 49 50 51 53 52 52 53 54 52 50 55 59 60 61 63 65 65 65 65 65 65 67 67
52 52 52 52 52 52 53 53 53 53 54 55 54 54 55 55 55 55 56 56 57 57 57 57 58 58 49 49 25 23 31 45 53 60 58 53 47 42 47 48 43 39 36 34 28 27 23 25 31 31 27 22 27 25 23 23 23 22 43 43 43 43 44 45 47 49 50 51 53 52 52 53 54 52 50 54 60 60 61 63 64 65 65 65 65 66 68 68
52 52 52 52 52 52 52 53 52 53 54 54 54 54 54 54 54 55 56 56 57 58 57 58 58 57 54 39 29 26 32 33 55 43 45 40 36 39 47 46 39 37 34 32 30 29 24 27 31 27 12 28 25 25 24 26 21 33 41 41 44 44 44 45 46 48 49 50 52 53 52 51 53 51 53 58 60 60 61 62 63 64 65 66 66 66 67 67
52 52 52 52 52 52 52 52 52 53 53 53 53 53 54 54 54 55 56 57 58 58 59 59 59 56 47 33 33 32 32 34 35 38 39 39 40 47 47 46 38 35 33 32 31 30 31 29 24 23 27 26 25 24 23 27 34 44 43 43 43 43 43 46 48 48 48 51 52 51 44 47 51 53 56 60 60 60 61 62 62 64 65 65 66 66 67 68
51 52 52 52 52 52 52 52 52 53 53 53 53 53 53 54 54 55 57 58 59 58 58 60 57 57 42 33 34 37 38 38 40 43 43 41 38 40 41 44 41 36 33 31 30 30 32 30 23 23 26 22 22 22 25 39 42 38 44 42 41 40 41 46 47 48 48 52 52 49 42 43 49 53 58 60 60 60 60 61 62 62 63 64 65 66 66 67
51 51 52 52 52 52 51 52 52 52 52 53 53 53 53 53 55 56 58 59 59 59 60 61 58 50 40 38 42 43 57 49 51 50 47 39 37 37 41 39 42 36 33 31 26 30 31 29 23 17 13 24 20 17 23 36 42 42 38 39 43 37 43 46 49 48 47 52 51 48 44 42 47 53 58 60 60 60 59 60 61 62 63 64 65 65 65 66
51 52 51 52 52 52 52 52 51 52 52 52 52 52 53 54 55 57 59 58 59 60 59 55 54 51 42 36 38 47 45 40 35 42 49 40 37 32 39 37 36 35 33 32 29 27 27 26 17 18 18 20 17 17 31 38 41 42 37 39 39 40 43 45 47 49 49 51 51 47 43 46 45 53 58 60 60 59 60 60 61 62 62 63 64 65 65 66
51 51 51 51 52 51 52 51 51 52 52 52 52 53 53 54 56 59 61 60 60 60 59 53 53 56 31 37 40 37 37 39 41 41 43 39 37 33 35 34 33 31 28 29 30 28 25 22 24 18 19 16 17 20 27 35 40 39 38 39 41 38 43 42 46 48 50 50 49 49 47 46 51 55 58 59 60 59 59 60 61 62 62 63 64 64 65 66
51 51 51 51 51 52 51 51 51 51 51 51 52 52 51 54 55 57 60 58 58 58 58 58 54 47 38 37 35 34 36 34 34 35 37 38 36 32 30 25 28 29 24 24 26 23 24 19 18 10 16 18 19 20 22 24 33 38 38 40 40 41 43 42 43 46 49 50 48 49 48 47 49 55 57 58 59 59 59 60 60 61 62 63 63 64 64 65
50 51 51 51 51 51 51 51 51 51 51 51 52 52 54 56 56 55 54 55 41 38 30 47 41 28 14 26 34 34 32 33 35 36 33 38 34 27 25 29 29 29 25 23 21 23 21 18 19 19 11 16 15 17 21 21 35 36 37 37 39 38 42 42 44 47 48 49 47 48 47 47 50 55 57 58 59 59 59 60 60 61 62 63 63 63 64 65
50 51 51 50 51 51 51 51 51 51 51 49 48 47 40 32 30 34 42 45 28 26 25 25 43 39 36 33 29 29 32 37 30 34 37 42 35 28 24 22 21 22 23 19 19 19 19 14 14 13 11 12 15 17 19 16 35 37 39 40 39 37 40 44 45 47 48 49 48 48 48 47 49 54 56 58 59 59 59 59 60 61 61 62 62 63 64 64
50 50 50 51 51 51 51 51 51 51 51 50 47 34 26 28 19 17 23 21 20 22 23 24 25 27 26 27 31 30 29 29 35 33 36 43 34 31 27 18 21 22 20 18 16 20 17 14 13 13 13 14 15 18 21 25 33 37 37 38 38 40 38 42 44 46 48 47 47 49 48 48 49 54 56 58 58 58 58 59 60 60 61 62 63 63 64 64
50 50 51 51 52 51 51 51 51 51 51 50 40 26 27 28 29 28 26 14 17 23 24 25 27 26 28 28 28 30 32 29 29 32 35 33 33 33 30 19 22 27 19 16 18 18 17 11 11 15 15 16 20 18 18 21 31 36 35 37 37 39 39 42 43 46 47 46 46 47 47 47 49 51 56 57 58 58 59 59 59 60 61 62 62 63 63 64
50 50 51 51 51 51 50 51 50 50 47 39 37 34 30 31 30 33 28 22 21 21 19 21 22 24 26 28 29 32 28 27 24 26 30 34 30 30 25 23 24 22 15 15 11 17 15 13 12 15 16 17 20 20 19 21 28 33 33 36 36 37 38 37 41 44 47 46 45 48 45 46 49 52 54 57 57 58 59 59 59 60 61 61 61 62 63 63
50 50 50 51 51 50 51 50 50 47 43 41 39 35 37 35 32 31 26 15 13 17 25 25 24 25 26 27 31 31 29 29 28 24 36 32 29 31 26 24 22 21 18 15 13 12 11 14 15 15 15 15 18 21 19 17 17 26 32 34 35 34 37 37 38 44 46 46 46 46 45 46 48 48 51 55 57 57 58 58 59 60 60 61 61 61 62 62
50 49 50 50 50 50 49 50 44 42 44 38 38 38 39 35 37 34 26 27 29 28 32 31 29 29 29 37 34 31 32 32 31 28 35 32 25 26 27 23 22 22 20 14 15 13 12 13 16 14 14 14 18 21 19 17 17 20 25 31 33 32 35 37 41 42 42 43 45 43 42 42 47 47 47 52 55 56 57 58 58 59 59 60 60 60 61 62
49 50 50 50 50 50 49 38 41 44 40 29 31 37 37 35 35 37 33 29 20 24 30 27 31 27 34 33 33 34 32 27 31 32 33 32 32 30 23 22 25 25 17 14 14 16 12 15 15 13 13 13 14 16 20 18 17 19 20 24 26 29 31 36 39 38 40 40 43 44 40 39 47 48 49 52 54 55 57 57 57 58 59 58 59 59 59 60
50 50 50 50 50 50 43 34 46 43 22 20 38 39 38 36 43 35 31 26 21 27 25 30 30 28 32 32 32 34 17 14 31 35 34 40 28 27 27 23 24 18 15 17 24 18 16 16 15 16 14 13 12 12 18 18 17 16 24 23 26 29 32 35 37 35 39 43 44 44 42 40 40 42 50 52 52 54 55 56 57 56 58 57 58 57 59 59
50 50 50 50 49 50 47 46 46 41 33 28 41 40 38 42 42 36 33 20 15 27 30 31 31 30 31 35 34 26 22 23 21 33 32 33 30 26 26 22 25 22 16 20 20 20 14 14 15 15 15 13 10 12 21 18 13 17 24 23 24 27 31 35 35 34 38 39 41 42 43 42 42 46 50 51 51 52 53 55 56 57 57 58 57 57 58 58
50 50 49 50 49 49 49 47 46 42 39 42 41 40 39 42 36 27 24 13 25 24 24 22 25 27 30 34 32 29 28 28 20 27 33 33 31 27 25 23 24 21 16 22 20 14 14 13 14 15 14 12 16 17 20 19 13 20 23 24 26 29 34 34 34 34 40 39 39 43 41 41 40 44 45 51 49 50 51 53 54 56 57 57 57 57 57 58
50 49 50 49 48 47 47 48 47 45 43 44 43 42 41 39 35 26 18 15 28 17 23 25 23 22 29 30 31 31 29 28 27 29 33 31 30 25 21 23 21 20 15 16 21 20 15 30 22 15 14 15 18 22 22 20 19 22 22 23 26 31 37 39 41 42 41 38 37 41 41 39 35 39 43 47 47 49 49 52 54 55 56 56 57 57 57 58
49 49 49 49 46 46 46 43 43 44 45 46 43 41 38 34 28 22 23 17 19 21 25 24 22 24 20 18 14 24 30 30 28 27 30 28 27 23 21 20 19 21 18 15 17 19 17 19 19 15 21 15 17 18 22 23 20 19 19 23 26 33 36 38 37 41 35 33 39 38 40 40 36 35 46 46 49 49 49 49 52 52 54 55 57 56 57 59
48 48 49 48 47 48 44 32 38 44 45 43 37 29 29 19 23 21 18 27 11 18 21 21 23 21 21 22 18 22 22 27 27 25 26 27 27 23 23 24 22 21 21 17 18 16 15 17 14 12 36 13 15 13 19 22 21 19 21 23 20 28 28 27 33 31 31 28 33 34 39 40 40 39 45 46 47 47 49 48 49 51 52 54 55 56 57 58
48 47 48 48 49 48 48 43 41 45 46 41 35 29 21 18 18 19 16 22 15 27 22 24 22 21 20 18 14 16 25 18 24 24 25 25 27 26 23 23 22 21 20 18 17 15 16 15 12 14 11 21 13 9 17 19 21 19 20 26 25 23 22 25 29 33 32 33 33 32 40 36 41 42 44 43 43 45 47 50 50 50 54 55 55 56 56 58
47 48 47 47 47 47 47 50 49 48 44 43 30 24 24 18 17 31 13 20 18 23 23 22 22 20 18 14 14 18 18 22 23 22 24 24 24 25 23 21 20 20 20 20 17 15 15 14 14 12 14 21 14 10 14 18 20 20 20 20 23 26 21 23 27 24 24 25 34 36 35 37 34 33 42 42 44 46 46 46 50 53 52 55 53 55 55 56
47 47 46 45 46 46 47 48 49 48 44 38 12 15 15 15 24 24 22 16 19 19 18 22 19 18 13 18 18 21 19 19 22 21 22 22 23 24 23 21 20 20 18 16 20 19 15 15 15 13 15 17 13 15 16 18 18 20 20 21 25 23 29 18 28 23 27 28 30 39 34 39 34 46 44 45 40 42 41 44 48 50 52 54 54 54 54 55
46 44 45 44 45 46 46 48 48 46 40 19 1 15 9 11 8 22 14 26 23 17 20 19 20 16 16 17 25 20 22 19 19 22 21 22 23 24 24 22 19 19 18 17 20 15 18 16 14 14 14 13 12 19 18 16 13 19 19 19 18 26 18 34 32 29 30 28 28 40 37 35 37 37 37 39 42 42 45 43 43 47 50 55 54 54 54 55
44 44 40 41 43 46 47 47 47 45 38 9 2 2 6 8 12 21 30 23 22 22 19 13 16 14 17 15 19 20 18 17 18 19 20 22 20 21 22 22 20 18 19 22 22 19 17 18 15 14 11 11 12 16 15 17 16 17 16 18 26 27 27 29 17 34 26 20 30 33 30 31 31 27 47 41 40 37 40 45 41 48 52 52 52 55 56 56
43 43 45 46 47 47 47 47 46 44 27 6 2 18 15 0 11 19 25 17 19 16 16 18 19 20 19 17 16 17 17 12 14 16 14 18 19 23 21 22 20 18 19 21 21 23 18 16 15 14 14 12 13 15 13 16 19 15 15 22 14 24 23 44 32 25 23 23 23 31 32 30 32 30 34 36 39 40 45 46 46 47 49 50 52 55 57 57
43 43 34 44 47 47 47 47 44 37 17 7 6 13 21 7 7 15 16 17 16 16 15 17 16 20 20 18 19 18 15 11 18 13 16 20 17 24 20 22 20 18 18 18 19 22 18 16 19 20 14 14 13 11 10 9 14 16 20 18 19 22 31 30 26 36 26 21 23 23 29 29 36 33 31 29 41 49 44 45 45 43 47 50 52 52 55 58
41 29 17 46 46 47 47 44 36 31 13 14 11 7 18 13 9 15 19 16 12 13 13 13 19 16 18 18 16 12 20 15 12 13 17 18 19 22 20 20 20 19 18 18 19 20 20 28 20 15 16 13 13 12 7 7 10 13 14 17 19 22 23 24 28 24 21 26 25 22 24 29 36 39 35 39 42 47 43 42 51 49 47 48 52 53 56 57
43 31 25 45 45 46 45 44 28 21 17 16 12 4 10 8 14 18 18 19 14 16 11 15 16 13 14 13 12 18 14 16 17 14 17 16 18 18 20 19 20 18 17 17 18 20 25 22 21 19 15 13 13 13 9 6 6 11 11 16 15 19 23 19 22 22 26 22 29 23 20 32 32 39 44 41 42 41 45 47 48 47 47 50 51 53 56 57
38 14 17 45 45 46 42 33 32 26 19 20 11 8 3 18 8 7 6 16 16 12 17 13 18 15 19 16 14 18 16 13 13 13 16 13 17 18 16 21 20 18 17 20 18 19 26 33 22 20 17 15 14 14 16 11 8 9 10 11 14 14 20 21 19 27 25 25 28 32 25 28 41 43 42 44 42 38 40 44 44 45 48 48 51 49 56 59
35 26 28 39 44 43 38 35 38 35 22 20 32 26 31 26 26 24 11 18 13 15 13 12 12 11 11 9 12 9 12 10 11 9 14 15 15 18 19 20 20 19 19 23 18 19 37 23 26 22 24 22 20 18 19 16 12 10 9 8 13 12 13 15 19 36 22 31 26 25 26 24 40 54 49 42 52 50 53 48 49 44 45 51 51 51 58 59
37 37 38 43 45 42 38 32 31 31 31 30 33 29 34 32 31 30 22 20 17 16 15 15 15 11 12 13 9 10 14 11 15 12 13 18 17 23 20 19 20 21 26 24 26 32 21 41 27 23 22 22 19 21 17 19 15 11 11 13 13 11 15 18 32 42 26 30 20 24 19 25 37 56 53 51 44 41 41 44 50 49 52 51 53 56 58 61
40 41 40 42 47 43 35 33 31 30 30 31 33 31 28 30 31 23 22 25 29 25 23 21 18 16 15 16 16 14 17 9 12 18 14 23 18 28 28 21 26 29 28 29 42 27 24 34 29 21 20 19 20 19 20 20 17 16 21 16 17 13 20 24 21 35 21 41 39 23 22 34 44 51 47 47 47 47 46 45 45 50 54 52 53 55 60 60
37 31 26 38 40 38 39 35 33 31 30 34 33 32 31 28 28 32 31 24 24 26 23 24 27 24 23 18 17 15 15 17 12 20 28 21 23 27 30 36 34 34 44 48 45 30 35 42 31 32 24 20 24 30 34 26 21 15 16 16 15 13 17 20 36 28 19 38 32 32 34 30 38 35 44 43 48 45 43 49 50 52 52 55 58 58 59 61
39 36 39 36 37 33 33 33 35 32 29 33 33 34 32 31 31 30 33 28 32 31 31 30 30 30 29 27 25 22 19 16 18 19 19 20 23 24 33 35 34 41 56 53 53 37 46 32 31 37 36 30 23 28 27 22 17 16 14 14 14 15 18 19 24 22 48 32 23 38 48 34 35 38 44 47 46 51 52 53 52 54 55 54 56 59 59 59
36 36 40 40 35 30 31 31 35 32 33 36 32 34 30 30 31 30 31 31 29 29 30 30 29 30 30 29 31 28 28 27 27 23 23 22 23 21 22 24 26 38 43 35 44 34 31 24 25 26 27 25 20 20 23 23 16 16 15 14 15 16 20 20 31 27 42 25 21 40 50 43 38 34 39 45 49 51 48 49 51 53 54 56 57 55 55 56
39 39 37 40 34 36 37 36 35 35 36 35 33 31 29 28 30 32 32 32 30 29 28 30 29 30 31 33 31 30 35 28 27 32 30 27 27 27 25 27 32 35 36 38 36 46 36 25 29 23 22 21 21 20 21 21 20 16 14 14 14 14 18 18 21 26 32 39 33 41 49 42 32 33 36 42 49 47 51 53 53 51 49 55 55 56 54 55
33 37 32 38 38 36 35 35 37 38 34 35 32 31 37 35 34 34 33 32 31 31 31 31 34 34 35 38 42 39 37 32 32 30 38 31 30 39 29 29 29 37 36 37 38 41 34 33 40 26 27 21 19 19 20 20 20 19 17 15 14 14 16 17 17 21 32 32 36 36 46 46 41 47 45 51 56 50 49 46 46 53 54 53 54 54 56 55
36 37 39 38 35 33 36 38 36 34 32 31 28 28 33 33 33 32 33 34 32 32 34 34 30 31 35 38 40 40 40 37 39 39 39 39 34 39 34 37 37 38 42 39 39 39 37 37 32 34 26 24 20 18 18 19 19 18 18 18 17 15 18 19 23 31 30 35 37 35 38 36 39 44 41 46 48 51 49 53 54 55 52 55 55 56 57 58
38 39 41 41 35 37 34 33 35 33 29 30 36 35 32 30 30 33 34 35 34 34 33 31 31 30 32 38 39 41 34 32 33 35 38 38 37 36 37 38 39 40 47 37 44 37 41 36 34 32 30 31 28 25 22 19 20 20 20 18 20 19 20 19 21 33 28 28 33 33 30 36 38 45 44 45 44 48 50 50 54 56 58 55 57 57 57 58